| time (UTC) | temp F | wind direction | speed knots | gust knots | rain 1hr in | rain 24hr in | rain mn in | humidity % | barometer mb |
| 20260510153516 | 75 | 92 | 3.5 | 7.8 | 0.00 | 0.32 | 0.00 | 87 | 1013.4 |
| 20260510152516 | 73 | 186 | 2.6 | 5.2 | 0.00 | 0.32 | 0.00 | 91 | 1013.2 |
| 20260510151516 | 73 | 158 | 3.5 | 6.1 | 0.00 | 0.32 | 0.00 | 93 | 1013.1 |
| 20260510150516 | 72 | 180 | 3.5 | 6.1 | 0.00 | 0.32 | 0.00 | 93 | 1013.2 |
| 20260510145516 | 72 | 174 | 3.5 | 6.1 | 0.00 | 0.32 | 0.00 | 95 | 1013.1 |
| 20260510144517 | 72 | 169 | 3.5 | 7.0 | 0.00 | 0.32 | 0.00 | 96 | 1012.9 |
| 20260510143516 | 71 | 180 | 2.6 | 6.1 | 0.00 | 0.32 | 0.00 | 96 | 1012.9 |
| 20260510142516 | 71 | 187 | 4.3 | 6.1 | 0.00 | 0.32 | 0.00 | 97 | 1012.8 |
| 20260510141517 | 71 | 165 | 2.6 | 4.3 | 0.00 | 0.32 | 0.00 | 97 | 1012.7 |
| 20260510140517 | 70 | 123 | 2.6 | 4.3 | 0.00 | 0.32 | 0.00 | 96 | 1012.6 |
| 20260510135517 | 70 | 163 | 1.7 | 3.5 | 0.00 | 0.32 | 0.00 | 96 | 1012.5 |
| 20260510134517 | 70 | 194 | 2.6 | 4.3 | 0.00 | 0.32 | 0.00 | 96 | 1012.4 |
| 20260510133518 | 70 | 181 | 3.5 | 5.2 | 0.00 | 0.32 | 0.00 | 96 | 1012.3 |
| 20260510132518 | 70 | 191 | 3.5 | 7.0 | 0.00 | 0.32 | 0.00 | 95 | 1012.0 |
| 20260510131518 | 70 | 207 | 2.6 | 5.2 | 0.00 | 0.32 | 0.00 | 95 | 1011.9 |
| 20260510130518 | 70 | 207 | 4.3 | 6.1 | 0.00 | 0.32 | 0.00 | 94 | 1011.7 |
| 20260510125518 | 69 | 226 | 3.5 | 6.1 | 0.00 | 0.32 | 0.00 | 94 | 1011.4 |
| 20260510124516 | 69 | 211 | 3.5 | 5.2 | 0.00 | 0.32 | 0.00 | 94 | 1011.3 |
| 20260510123535 | 68 | 227 | 2.6 | 4.3 | 0.00 | 0.32 | 0.00 | 95 | 1011.3 |
| 20260510122516 | 68 | 226 | 3.5 | 5.2 | 0.00 | 0.32 | 0.00 | 95 | 1011.1 |
| 20260510121516 | 68 | 230 | 3.5 | 5.2 | 0.00 | 0.32 | 0.00 | 95 | 1010.9 |
| 20260510120517 | 68 | 231 | 4.3 | 6.1 | 0.00 | 0.32 | 0.00 | 95 | 1010.7 |
| 20260510115516 | 68 | 228 | 3.5 | 5.2 | 0.00 | 0.32 | 0.00 | 96 | 1010.8 |
| 20260510114516 | 68 | 214 | 3.5 | 5.2 | 0.00 | 0.32 | 0.00 | 96 | 1010.9 |
| 20260510113517 | 68 | 211 | 3.5 | 4.3 | 0.00 | 0.32 | 0.00 | 96 | 1010.9 |
| 20260510112516 | 68 | 213 | 4.3 | 6.1 | 0.00 | 0.32 | 0.00 | 96 | 1010.8 |
| 20260510111517 | 68 | 215 | 4.3 | 6.1 | 0.00 | 0.32 | 0.00 | 95 | 1010.8 |
| 20260510110517 | 68 | 194 | 3.5 | 6.1 | 0.00 | 0.32 | 0.00 | 95 | 1010.9 |
| 20260510105537 | 68 | 182 | 3.5 | 5.2 | 0.00 | 0.32 | 0.00 | 95 | 1010.9 |
| 20260510104517 | 69 | 186 | 3.5 | 5.2 | 0.00 | 0.32 | 0.00 | 96 | 1010.8 |
| 20260510103517 | 69 | 178 | 3.5 | 5.2 | 0.00 | 0.32 | 0.00 | 95 | 1010.9 |
| 20260510102518 | 69 | 163 | 2.6 | 3.5 | 0.00 | 0.32 | 0.00 | 95 | 1011.0 |
| 20260510101518 | 69 | 182 | 3.5 | 4.3 | 0.00 | 0.32 | 0.00 | 94 | 1011.0 |
| 20260510100518 | 69 | 178 | 2.6 | 4.3 | 0.00 | 0.32 | 0.00 | 94 | 1011.2 |
| 20260510095515 | 69 | 210 | 2.6 | 4.3 | 0.00 | 0.32 | 0.00 | 94 | 1011.1 |
| 20260510094515 | 70 | 186 | 3.5 | 4.3 | 0.00 | 0.32 | 0.00 | 93 | 1011.2 |
| 20260510093516 | 70 | 195 | 2.6 | 3.5 | 0.00 | 0.32 | 0.00 | 93 | 1011.1 |
| 20260510092516 | 70 | 160 | 1.7 | 3.5 | 0.00 | 0.32 | 0.00 | 93 | 1011.1 |
| 20260510091516 | 71 | 123 | 2.6 | 4.3 | 0.00 | 0.32 | 0.00 | 93 | 1011.0 |
| 20260510090516 | 71 | 186 | 1.7 | 3.5 | 0.00 | 0.32 | 0.00 | 92 | 1010.8 |
| 20260510085517 | 71 | 120 | 2.6 | 3.5 | 0.00 | 0.32 | 0.00 | 92 | 1010.8 |
| 20260510084516 | 72 | 225 | 0.9 | 1.7 | 0.00 | 0.32 | 0.00 | 90 | 1010.7 |
| 20260510083537 | 72 | 134 | 0.9 | 1.7 | 0.00 | 0.32 | 0.00 | 90 | 1010.8 |
| 20260510082518 | 72 | 127 | 2.6 | 3.5 | 0.00 | 0.32 | 0.00 | 89 | 1010.8 |
| 20260510081515 | 72 | 129 | 1.7 | 3.5 | 0.00 | 0.32 | 0.00 | 89 | 1010.8 |
| 20260510080516 | 72 | 157 | 1.7 | 3.5 | 0.00 | 0.32 | 0.00 | 89 | 1010.8 |
| 20260510075516 | 73 | 198 | 0.9 | 2.6 | 0.00 | 0.32 | 0.00 | 88 | 1010.8 |
| 20260510074516 | 73 | 192 | 1.7 | 2.6 | 0.00 | 0.32 | 0.00 | 88 | 1010.8 |
| 20260510073516 | 73 | 192 | 0.9 | 2.6 | 0.00 | 0.32 | 0.00 | 88 | 1010.8 |
| 20260510072516 | 73 | 131 | 0.9 | 1.7 | 0.00 | 0.32 | 0.00 | 88 | 1010.8 |
| 20260510071516 | 73 | 147 | 0.9 | 2.6 | 0.00 | 0.32 | 0.00 | 88 | 1010.8 |
| 20260510070516 | 73 | 170 | 1.7 | 2.6 | 0.00 | 0.32 | 0.00 | 88 | 1010.8 |
| 20260510065517 | 73 | 167 | 0.9 | 1.7 | 0.00 | 0.32 | 0.00 | 87 | 1010.9 |
| 20260510064517 | 74 | 191 | 1.7 | 2.6 | 0.00 | 0.32 | 0.00 | 87 | 1010.8 |
| 20260510063517 | 74 | 171 | 1.7 | 3.5 | 0.00 | 0.32 | 0.00 | 86 | 1010.7 |
| 20260510062517 | 74 | 173 | 2.6 | 4.3 | 0.00 | 0.32 | 0.00 | 85 | 1010.6 |
| 20260510061517 | 74 | 154 | 1.7 | 3.5 | 0.00 | 0.32 | 0.00 | 84 | 1010.7 |
| 20260510060518 | 75 | 174 | 1.7 | 2.6 | 0.00 | 0.32 | 0.00 | 84 | 1010.7 |
| 20260510055518 | 75 | 188 | 1.7 | 2.6 | 0.00 | 0.32 | 0.00 | 83 | 1010.7 |
| 20260510054518 | 75 | 190 | 1.7 | 3.5 | 0.00 | 0.32 | 0.00 | 83 | 1010.7 |
| 20260510053559 | 75 | 170 | 1.7 | 3.5 | 0.00 | 0.32 | 0.00 | 82 | 1010.8 |
| 20260510052518 | 76 | 167 | 1.7 | 2.6 | 0.00 | 0.32 | 0.00 | 81 | 1010.7 |
| 20260510051516 | 76 | 148 | 1.7 | 3.5 | 0.00 | 0.32 | 0.00 | 80 | 1010.7 |
| 20260510050518 | 76 | 122 | 1.7 | 3.5 | 0.00 | 0.32 | 0.00 | 80 | 1010.6 |
| 20260510045516 | 77 | 104 | 1.7 | 3.5 | 0.00 | 0.32 | 0.32 | 79 | 1010.5 |
| 20260510044516 | 77 | 126 | 1.7 | 3.5 | 0.00 | 0.32 | 0.32 | 78 | 1010.4 |
| 20260510043516 | 77 | 144 | 0.9 | 3.5 | 0.00 | 0.32 | 0.32 | 79 | 1010.4 |
| 20260510042516 | 77 | 106 | 1.7 | 3.5 | 0.00 | 0.32 | 0.32 | 78 | 1010.3 |
| 20260510041516 | 76 | 107 | 2.6 | 5.2 | 0.00 | 0.32 | 0.32 | 79 | 1010.2 |
| 20260510040517 | 76 | 52 | 0.9 | 3.5 | 0.00 | 0.32 | 0.32 | 80 | 1010.1 |
| 20260510035517 | 77 | 48 | 1.7 | 3.5 | 0.00 | 0.32 | 0.32 | 80 | 1010.0 |
| 20260510034517 | 77 | 46 | 1.7 | 3.5 | 0.00 | 0.32 | 0.32 | 79 | 1010.0 |
| 20260510033517 | 77 | 35 | 1.7 | 3.5 | 0.00 | 0.32 | 0.32 | 78 | 1009.9 |
| 20260510032517 | 77 | 38 | 3.5 | 4.3 | 0.00 | 0.32 | 0.32 | 78 | 1009.8 |
| 20260510031517 | 78 | 29 | 2.6 | 5.2 | 0.00 | 0.32 | 0.32 | 78 | 1009.7 |
| 20260510030538 | 78 | 38 | 4.3 | 5.2 | 0.00 | 0.32 | 0.32 | 77 | 1009.6 |
| 20260510025519 | 78 | 38 | 2.6 | 5.2 | 0.00 | 0.32 | 0.32 | 77 | 1009.5 |
| 20260510024538 | 78 | 41 | 1.7 | 4.3 | 0.00 | 0.32 | 0.32 | 77 | 1009.3 |
| 20260510023537 | 78 | 54 | 1.7 | 3.5 | 0.00 | 0.32 | 0.32 | 77 | 1009.3 |
| 20260510022536 | 78 | 62 | 1.7 | 3.5 | 0.00 | 0.32 | 0.32 | 75 | 1009.1 |
| 20260510021515 | 78 | 57 | 1.7 | 2.6 | 0.00 | 0.32 | 0.32 | 77 | 1009.1 |
| 20260510020516 | 77 | 46 | 1.7 | 3.5 | 0.00 | 0.32 | 0.32 | 79 | 1009.1 |
| 20260510015516 | 78 | 51 | 1.7 | 3.5 | 0.00 | 0.32 | 0.32 | 80 | 1009.0 |
| 20260510014516 | 78 | 52 | 1.7 | 3.5 | 0.00 | 0.32 | 0.32 | 80 | 1009.0 |
| 20260510013516 | 78 | 56 | 1.7 | 3.5 | 0.00 | 0.32 | 0.32 | 80 | 1008.8 |
| 20260510012516 | 78 | 65 | 1.7 | 3.5 | 0.00 | 0.32 | 0.32 | 79 | 1008.7 |
| 20260510011518 | 78 | 77 | 2.6 | 3.5 | 0.00 | 0.32 | 0.32 | 77 | 1008.6 |
| 20260510010517 | 78 | 74 | 1.7 | 3.5 | 0.00 | 0.32 | 0.32 | 74 | 1008.4 |
| 20260510005517 | 78 | 71 | 2.6 | 3.5 | 0.00 | 0.32 | 0.32 | 72 | 1008.3 |
| 20260510004517 | 78 | 61 | 1.7 | 3.5 | 0.00 | 0.32 | 0.32 | 72 | 1008.2 |
| 20260510003517 | 78 | 48 | 1.7 | 4.3 | 0.00 | 0.32 | 0.32 | 72 | 1008.1 |
| 20260510002517 | 77 | 49 | 1.7 | 3.5 | 0.00 | 0.32 | 0.32 | 72 | 1008.0 |
| 20260510001517 | 77 | 66 | 1.7 | 3.5 | 0.00 | 0.32 | 0.32 | 72 | 1008.1 |
| 20260510000518 | 78 | 61 | 2.6 | 6.1 | 0.00 | 0.32 | 0.32 | 73 | 1007.9 |
| 20260509235518 | 79 | 68 | 2.6 | 6.1 | 0.00 | 0.32 | 0.32 | 69 | 1007.7 |
| 20260509234515 | 77 | 69 | 1.7 | 4.3 | 0.00 | 0.32 | 0.32 | 66 | 1007.6 |
| 20260509233515 | 76 | 57 | 1.7 | 4.3 | 0.00 | 0.32 | 0.32 | 68 | 1007.7 |
| 20260509232515 | 75 | 77 | 2.6 | 5.2 | 0.29 | 0.32 | 0.32 | 75 | 1007.7 |
| 20260509231515 | 74 | 55 | 2.6 | 7.0 | 0.32 | 0.32 | 0.32 | 81 | 1007.7 |
| 20260509230516 | 75 | 58 | 1.7 | 2.6 | 0.32 | 0.32 | 0.32 | 75 | 1007.6 |
| 20260509225516 | 74 | 283 | 3.5 | 7.0 | 0.32 | 0.32 | 0.32 | 74 | 1007.3 |
| 20260509224516 | 74 | 170 | 3.5 | 7.8 | 0.32 | 0.32 | 0.32 | 68 | 1007.5 |
| 20260509222517 | 85 | 70 | 8.7 | 21.7 | 0.03 | 0.03 | 0.03 | 59 | 1008.0 |
| 20260509221517 | 91 | 61 | 4.3 | 10.4 | 0.00 | 0.00 | 0.00 | 47 | 1007.9 |
| 20260509220517 | 90 | 190 | 3.5 | 6.1 | 0.00 | 0.00 | 0.00 | 46 | 1007.3 |
| 20260509215517 | 91 | 186 | 5.2 | 7.8 | 0.00 | 0.00 | 0.00 | 45 | 1007.3 |
| 20260509214517 | 90 | 196 | 5.2 | 11.3 | 0.00 | 0.00 | 0.00 | 46 | 1007.4 |
| 20260509213517 | 90 | 182 | 2.6 | 7.0 | 0.00 | 0.00 | 0.00 | 47 | 1007.5 |
| 20260509212517 | 89 | 192 | 2.6 | 7.0 | 0.00 | 0.00 | 0.00 | 49 | 1007.6 |
| 20260509211538 | 89 | 237 | 3.5 | 8.7 | 0.00 | 0.00 | 0.00 | 49 | 1007.6 |
| 20260509210540 | 89 | 211 | 5.2 | 7.8 | 0.00 | 0.00 | 0.00 | 50 | 1007.7 |
| 20260509205518 | 89 | 223 | 6.1 | 9.6 | 0.00 | 0.00 | 0.00 | 51 | 1007.9 |
| 20260509204518 | 89 | 216 | 4.3 | 8.7 | 0.00 | 0.00 | 0.00 | 52 | 1008.0 |
| 20260509203515 | 88 | 220 | 2.6 | 8.7 | 0.00 | 0.00 | 0.00 | 53 | 1008.3 |
| 20260509202516 | 88 | 196 | 5.2 | 10.4 | 0.00 | 0.00 | 0.00 | 53 | 1008.4 |
| 20260509201537 | 88 | 217 | 5.2 | 7.8 | 0.00 | 0.00 | 0.00 | 52 | 1008.4 |
| 20260509200516 | 88 | 213 | 5.2 | 8.7 | 0.00 | 0.00 | 0.00 | 53 | 1008.4 |
| 20260509195516 | 88 | 222 | 3.5 | 8.7 | 0.00 | 0.00 | 0.00 | 53 | 1008.6 |
| 20260509194536 | 88 | 235 | 2.6 | 5.2 | 0.00 | 0.00 | 0.00 | 51 | 1008.8 |
| 20260509193516 | 87 | 259 | 2.6 | 7.0 | 0.00 | 0.00 | 0.00 | 54 | 1009.0 |
| 20260509192517 | 86 | 252 | 4.3 | 7.0 | 0.00 | 0.00 | 0.00 | 57 | 1009.3 |
| 20260509191516 | 86 | 222 | 3.5 | 7.0 | 0.00 | 0.00 | 0.00 | 59 | 1009.5 |
| 20260509190517 | 87 | 223 | 3.5 | 7.0 | 0.00 | 0.00 | 0.00 | 60 | 1009.5 |
| 20260509185517 | 86 | 231 | 4.3 | 6.1 | 0.00 | 0.00 | 0.00 | 60 | 1009.6 |
| 20260509184517 | 85 | 260 | 4.3 | 8.7 | 0.00 | 0.00 | 0.00 | 62 | 1009.5 |
| 20260509183519 | 85 | 208 | 2.6 | 6.1 | 0.00 | 0.00 | 0.00 | 64 | 1009.6 |
| 20260509182558 | 84 | 238 | 4.3 | 9.6 | 0.00 | 0.00 | 0.00 | 65 | 1009.8 |
| 20260509181518 | 84 | 219 | 5.2 | 8.7 | 0.00 | 0.00 | 0.00 | 67 | 1009.9 |
| 20260509180518 | 84 | 201 | 4.3 | 8.7 | 0.00 | 0.00 | 0.00 | 68 | 1009.9 |
| 20260509175558 | 84 | 203 | 2.6 | 7.0 | 0.00 | 0.00 | 0.00 | 69 | 1010.2 |
| 20260509174518 | 85 | 216 | 2.6 | 6.1 | 0.00 | 0.00 | 0.00 | 66 | 1010.3 |
| 20260509173515 | 84 | 237 | 1.7 | 4.3 | 0.00 | 0.00 | 0.00 | 69 | 1010.3 |
| 20260509172515 | 83 | 268 | 3.5 | 6.1 | 0.00 | 0.00 | 0.00 | 70 | 1010.4 |
| 20260509171515 | 82 | 254 | 0.9 | 3.5 | 0.00 | 0.01 | 0.00 | 74 | 1010.4 |
| 20260509170516 | 81 | 233 | 2.6 | 5.2 | 0.00 | 0.01 | 0.00 | 76 | 1010.5 |
| 20260509165516 | 80 | 244 | 1.7 | 2.6 | 0.00 | 0.01 | 0.00 | 78 | 1010.6 |
| 20260509164536 | 80 | 360 | 1.7 | 5.2 | 0.00 | 0.01 | 0.00 | 81 | 1010.7 |
| 20260509163516 | 79 | 342 | 1.7 | 5.2 | 0.00 | 0.01 | 0.00 | 81 | 1010.7 |
| 20260509162557 | 78 | 245 | 2.6 | 6.1 | 0.00 | 0.01 | 0.00 | 83 | 1010.4 |
| 20260509161517 | 77 | 217 | 3.5 | 6.1 | 0.00 | 0.01 | 0.00 | 85 | 1010.4 |
| 20260509160517 | 75 | 243 | 4.3 | 7.8 | 0.00 | 0.01 | 0.00 | 96 | 1010.3 |
| 20260509155517 | 74 | 238 | 4.3 | 8.7 | 0.00 | 0.01 | 0.00 | 98 | 1010.4 |
| 20260509154517 | 73 | 239 | 6.1 | 10.4 | 0.00 | 0.01 | 0.00 | 99 | 1010.3 |